Simultaneous Nadir Overpasses (SNOs) Predictions

Prediction of SNOs between GOES-15 and METOP-C Satellite Orbit:

Table of predicted SNOs for the next 14.0 days since TLE Epoch: 8/8/2025
Index Date Time (GOES-15) GOES-15 Lat,Lon METOP-C Lat,Lon Distance(km) Time Diff (sec)
1 08/09/2025 05:06:32 0.09, 61.47 -0.84, 65.72 484.20 80
2 08/10/2025 17:28:12 -0.15, 61.59 -0.25, 61.14 51.29 80
3 08/13/2025 05:23:47 0.16, 61.53 0.12, 61.56 4.88 80
4 08/15/2025 17:22:08 -0.18, 61.68 -0.14, 61.98 33.61 80
5 08/17/2025 05:43:40 0.24, 61.62 1.19, 57.43 478.29 80
6 08/18/2025 05:20:22 0.20, 61.64 0.00, 62.40 87.02 80
7 08/19/2025 17:42:02 -0.26, 61.78 -1.13, 57.83 450.44 80
8 08/20/2025 17:18:43 -0.22, 61.81 0.00, 62.82 114.70 80
9 08/22/2025 05:40:15 0.27, 61.75 1.05, 58.26 397.56 80
